CLEMENTINE

Satellite information

Favourite Embed

Satellite Type and Status

PAYLOADIN ORBIT

Key statistics

Satellite CLEMENTINE at a glance.

Uptime

9349

Days in orbit

Revolutions

≈ 15.2

Per day

Orbit

SSO

Sun Synchronous Orbit

Inclination

98.2

Latest

Satellite identification and parameters

Extended collection of information and parameters for CLEMENTINE.

Object identification

Identified? True

Debris? False

Object name: CLEMENTINE

International designator: 1999-064B

Object number (NORAD): 25978

Object ID (CCSDS): 25978

Country: FRANCE (FR)

Current information (Y/N): Y

RCS size: MEDIUM

Orbital parameters

Period: 94.433 minutes

Inclination: 98.1851 deg

SMA: 6869.236 km

Apoapsis: 492.327 km

Periapsis: 489.874 km

RAAN: 243.1343 deg

Eccentricy: 0.0001786

Argument of periapsis: 254.3432 deg

Mean anomaly: 105.7607 deg

Mean motion: 15.24895731 rev/day

Mean motion (dot): 0.00009563 rev/day2

B* drag term: 0.0003876 1/REarth

Two-line elements (TLE)

Creation date: July 8, 2025, 2:27 a.m.

Reference frame: TEME

Reference center: EARTH

Epoch: July 7, 2025, 5:02 p.m. UTC

TLE line 0: 0 CLEMENTINE

TLE line 1: 1 25978U 99064B 25188.71000032 .00009563 00000-0 38760-3 0 9996

TLE line 2: 2 25978 98.1851 243.1343 0001786 254.3432 105.7607 15.24895731655816

Live tracking on map

Real-time ground track for satellite CLEMENTINE.

In-orbit conjunctions

A list of the most updated potential collisions computed for object CLEMENTINE.

Target Orbit TCA Probability of collision Miss distance Type
SL-8 DEB LEO 2025-02-10 20:38:51 0.0002964948 145.0 (m) DEBRIS

Associated space launch

The Helios program is Europe's military optical reconnaissance system consisting of both a space and a ground segment, which commenced service in 1995, jointly funded by the French, Italian and Spanish governments. The Helios I optical observation satellites, launched in July 1995 and December 1999 respectively, can acquire high resolution images of any point on the globe, with daily revisit capability. Helios-1B had suffered a breakdown of its power supply system in October 2004 and could no longer perform any work after operating for just under its 5-year nominal life expectancy.

CLEMENTINE was lifted into orbit during the mission ‘Ariane 40 | Helios 1B’, on board a Ariane 40 space rocket.

The launch took place on Dec. 3, 1999, 4:22 p.m. from Ariane Launch Area 2.

For more information about the launch, click the button.

Launch to space Ariane 40 | Helios 1B
Ariane 40 | Helios 1B

Agency: N/A

Status: Launch Successful

Launch date: Dec. 3, 1999, 4:22 p.m. UTC

Rocket: Ariane 40

Launch pad: Ariane Launch Area 2

Location: Guiana Space Centre, French Guiana

...

Latest news about this satellite

There are no fresh news available about this satellite. Check back as we update our databases every day.


Newsletter sign-up

Weekly statistics, charts and insights to help you stay on top of the space industry.